Location: Newark
(35.2672°N, 80.7344°W)
Time: 02:46:20
(UTC+00:00)

deb Explorer IX - Visible Passes

Search period start: 26 January 2020 00:00
Search period end: 05 February 2020 00:00
Orbit: 548 x 1101 km, 38.8° (Epoch: 25 January)

Date Brightness Start Highest point End Pass type
(mag) Time Alt. Az. Time Alt. Az. Time Alt. Az.
26 Jan ? 00:26:52 10° S 00:31:13 19° SE 00:31:13 19° SE visible
26 Jan ? 02:11:10 10° SW 02:12:35 17° SW 02:12:35 17° SW visible
27 Jan ? 00:04:33 10° S 00:08:50 19° SE 00:10:28 17° ESE visible
27 Jan ? 01:48:50 10° SW 01:51:51 29° SW 01:51:51 29° SW visible
27 Jan ? 23:42:16 10° S 23:46:26 19° SE 23:49:41 13° ESE visible
28 Jan ? 01:26:32 10° SW 01:31:03 46° SSW 01:31:03 46° SSW visible
28 Jan ? 23:19:58 10° S 23:24:01 19° SE 23:28:24 10° E visible
29 Jan ? 01:04:13 10° SW 01:10:11 62° SSE 01:10:11 62° SSE visible
29 Jan ? 02:51:12 10° W 02:51:33 12° W 02:51:33 12° W visible
30 Jan ? 00:41:57 10° SW 00:48:02 63° SSE 00:49:17 53° ESE visible
30 Jan ? 02:28:51 10° W 02:30:38 20° W 02:30:38 20° W visible
31 Jan ? 00:19:39 10° SW 00:25:35 63° SSE 00:28:18 36° E visible
31 Jan ? 02:06:32 10° W 02:09:40 31° W 02:09:40 31° W visible
31 Jan ? 23:57:24 10° SW 00:03:09 63° SSE 00:07:17 24° E visible
01 Feb ? 01:44:13 10° W 01:48:38 47° WNW 01:48:38 47° WNW visible
01 Feb ? 23:35:08 10° SW 23:40:45 63° SSE 23:46:13 15° ENE visible
02 Feb ? 01:21:56 10° W 01:27:34 66° NW 01:27:34 66° NW visible
02 Feb ? 23:12:53 10° SW 23:18:20 64° SSE 23:24:44 10° ENE visible
03 Feb ? 00:59:39 10° W 01:05:42 69° N 01:06:27 63° NNE visible
03 Feb ? 02:46:58 10° WNW 02:47:48 14° WNW 02:47:48 14° WNW visible
04 Feb ? 00:37:23 10° W 00:43:16 68° N 00:45:19 44° ENE visible
04 Feb ? 02:24:37 10° WNW 02:26:40 22° WNW 02:26:40 22° WNW visible
